This is the latest recevied weather packets stored in our database for station/object N8ESC. If no packets are shown the sender has not sent any weather packets the latest 10 day(s).
| Time | Temp. | Humidity | Pressure | Rain* | Wind** | Luminosity | Snow |
|---|---|---|---|---|---|---|---|
| 1777661683 | 6.11° C | 59% | 1015.5 hPa | 0 mm | - | 422 W/m² | - |
| 1777661380 | 6.67° C | 48% | 1015.4 hPa | 0 mm | - | 708 W/m² | - |
| 1777661076 | 6.11° C | 50% | 1015.4 hPa | 0 mm | - | 831 W/m² | - |
| 1777660771 | 5.56° C | 52% | 1015.2 hPa | 0 mm | - | 413 W/m² | - |
| 1777660468 | 6.11° C | 57% | 1015.4 hPa | 0 mm | - | 221 W/m² | - |
| 1777660164 | 6.11° C | 50% | 1015.6 hPa | 0 mm | - | 357 W/m² | - |
| 1777659861 | 5.56° C | 52% | 1015.3 hPa | 0 mm | - | 569 W/m² | - |
| 1777659558 | 5° C | 53% | 1015.4 hPa | 0 mm | - | 343 W/m² | - |
| 1777659255 | 5.56° C | 54% | 1015.2 hPa | 0 mm | - | 273 W/m² | - |
| 1777658952 | 5.56° C | 52% | 1015.3 hPa | 0 mm | - | 273 W/m² | - |
| 1777658649 | 5.56° C | 51% | 1015.3 hPa | 0 mm | - | 217 W/m² | - |
| 1777658345 | 6.11° C | 48% | 1015.4 hPa | 0 mm | - | 307 W/m² | - |
| 1777658042 | 6.11° C | 47% | 1015.4 hPa | 0 mm | - | 823 W/m² | - |
| 1777657739 | 6.11° C | 46% | 1015.3 hPa | 0 mm | - | 570 W/m² | - |
| 1777657437 | 6.11° C | 46% | 1015.4 hPa | 0 mm | - | 429 W/m² | - |
| 1777657134 | 5.56° C | 47% | 1015.3 hPa | 0 mm | - | 457 W/m² | - |
| 1777656832 | 5.56° C | 46% | 1015.4 hPa | 0 mm | - | 433 W/m² | - |
| 1777656527 | 5.56° C | 45% | 1015.7 hPa | 0 mm | - | 413 W/m² | - |
| 1777656222 | 5.56° C | 48% | 1015.5 hPa | 0 mm | - | 316 W/m² | - |
| 1777655918 | 5.56° C | 51% | 1015.6 hPa | 0 mm | - | 260 W/m² | - |
| 1777655615 | 5° C | 53% | 1015.4 hPa | 0 mm | - | 264 W/m² | - |
| 1777655312 | 5° C | 55% | 1015.3 hPa | 0 mm | - | 254 W/m² | - |
| 1777655009 | 5° C | 55% | 1015.6 hPa | 0 mm | - | 213 W/m² | - |
| 1777654706 | 5° C | 55% | 1015.5 hPa | 0 mm | - | 162 W/m² | - |
| 1777654404 | 5° C | 55% | 1015.6 hPa | 0 mm | - | 117 W/m² | - |
* Rain latest hour (hover to see other rain measurements)
** Current wind speed in m/s (hover to see current wind gust speed)